Weather History for KDUJ - May, 2014

Change the Weather History Date:

Sunday, May 4, 2014

  Actual Average Record
Temperature  
Mean Temperature 45 °F 53 °F  
Max Temperature 52 °F 64 °F 84 °F (2001)
Min Temperature 37 °F 42 °F 24 °F (2002)
Degree Days  
Heating Degree Days 20 12  
Month to date heating degree days 61 50  
Since 1 July heating degree days 6648 6563  
Cooling Degree Days 0 0  
Month to date cooling degree days 0 0  
Year to date cooling degree days 8 4  
Moisture  
Dew Point 37 °F    
Average Humidity 70    
Maximum Humidity 85    
Minimum Humidity 54    
Precipitation  
Precipitation 0.03 in 0.13 in 0.85 in (1975)
Month to date precipitation 0.44 0.48  
Sea Level Pressure  
Sea Level Pressure 29.87 in    
Wind  
Wind Speed 10 mph (West)    
Max Wind Speed 25 mph    
Max Gust Speed 33 mph    
Visibility 10 miles    
Events Rain    
T = Trace of Precipitation, MM = Missing Value Source: NWS Daily Summary

Daily Weather History Graph

Daily Weather History Graph

Search for Another Location

Airport or City:

Trip Planner

Search our weather history database for the weather conditions in past years. The results will help you decide how hot, cold, wet, or windy it might be!

Date:

Astronomy

May. 04, 2014 Rise Set
Actual Time 6:09 AM EDT 8:15 PM EDT
Civil Twilight 5:39 AM EDT 8:46 PM EDT
Nautical Twilight 5:02 AM EDT 9:23 PM EDT
Astronomical Twilight 4:21 AM EDT 10:04 PM EDT
Moon 10:31 AM EDT (5/4) 12:20 AM EDT (5/4)
Length of Visible Light 15h 06m
Length of Day
14h 06m
Waxing Crescent, 27% of the Moon is Illuminated
May 4
Waxing Crescent
May 6
First Quarter
May 14
Full
May 21
Last Quarter
May 28
New

Hourly Weather History & Observations

Time (EDT) Temp. Windchill Dew Point Humidity Pressure Visibility Wind Dir Wind Speed Gust Speed Precip Events Conditions
12:56 AM 45.0 °F 40.1 °F 39.0 °F 80% 29.82 in 10.0 mi WSW 9.2 mph - N/A   Clear
1:56 AM 45.0 °F 40.6 °F 39.0 °F 80% 29.81 in 10.0 mi WSW 8.1 mph - N/A   Overcast
2:56 AM 45.0 °F 40.1 °F 39.0 °F 80% 29.81 in 10.0 mi WSW 9.2 mph - N/A   Overcast
3:56 AM 46.0 °F 41.0 °F 35.1 °F 66% 29.81 in 10.0 mi West 10.4 mph - N/A   Overcast
4:56 AM 46.0 °F 40.2 °F 35.1 °F 66% 29.82 in 10.0 mi WSW 12.7 mph 20.7 mph N/A   Overcast
5:56 AM 44.1 °F 39.0 °F 37.0 °F 76% 29.84 in 10.0 mi WSW 9.2 mph - 0.00 in Rain Light Rain
6:56 AM 44.1 °F 39.5 °F 37.9 °F 79% 29.83 in 10.0 mi SW 8.1 mph - 0.01 in   Overcast
7:56 AM 44.1 °F 40.1 °F 37.9 °F 79% 29.83 in 10.0 mi SW 6.9 mph - N/A   Overcast
8:56 AM 45.0 °F 40.6 °F 37.9 °F 76% 29.83 in 10.0 mi SW 8.1 mph - N/A   Overcast
9:56 AM 45.0 °F 41.2 °F 39.0 °F 80% 29.83 in 10.0 mi WSW 6.9 mph - N/A   Overcast
10:56 AM 46.0 °F 41.4 °F 41.0 °F 83% 29.84 in 10.0 mi West 9.2 mph - N/A   Overcast
11:25 AM 45.0 °F 38.2 °F 39.0 °F 80% 29.83 in 10.0 mi NW 15.0 mph 20.7 mph N/A   Overcast
11:54 AM 42.8 °F 37.0 °F 39.2 °F 87% 29.85 in 10.0 mi NW 10.4 mph 19.6 mph 0.01 in Rain Light Rain
11:56 AM 43.0 °F 36.4 °F 39.0 °F 86% 29.87 in 10.0 mi NNW 12.7 mph 19.6 mph 0.01 in Rain Light Rain
12:15 PM 45.0 °F 39.7 °F 39.9 °F 82% 29.85 in 10.0 mi WNW 10.4 mph - 0.00 in   Overcast
12:56 PM 44.1 °F 39.0 °F 37.0 °F 76% 29.87 in 10.0 mi WNW 9.2 mph 18.4 mph 0.00 in   Overcast
1:56 PM 46.9 °F - 37.0 °F 68% 29.86 in 10.0 mi WNW 10.4 mph - N/A   Overcast
2:56 PM 45.0 °F 39.3 °F 39.0 °F 80% 29.87 in 10.0 mi WNW 11.5 mph - 0.01 in   Overcast
3:56 PM 50.0 °F - 39.0 °F 66% 29.85 in 10.0 mi WNW 10.4 mph 21.9 mph N/A   Mostly Cloudy
5:56 PM 50.0 °F - 36.0 °F 59% 29.88 in 10.0 mi NW 16.1 mph 25.3 mph N/A   Overcast
6:56 PM 48.0 °F - 34.0 °F 58% 29.92 in 10.0 mi NW 18.4 mph 28.8 mph N/A   Scattered Clouds
7:56 PM 46.0 °F 39.9 °F 34.0 °F 63% 29.94 in 10.0 mi NW 13.8 mph 18.4 mph N/A   Overcast
8:56 PM 43.0 °F 38.2 °F 34.0 °F 71% 29.97 in 10.0 mi NW 8.1 mph - N/A   Clear
9:56 PM 42.1 °F 38.4 °F 34.0 °F 73% 30.00 in 10.0 mi WNW 5.8 mph - N/A   Clear
10:56 PM 41.0 °F 36.4 °F 34.0 °F 76% 30.02 in 10.0 mi WNW 6.9 mph - N/A   Clear
11:56 PM 37.9 °F 32.7 °F 34.0 °F 86% 30.04 in 10.0 mi West 6.9 mph - N/A   Clear